PLMTR41 EGVN-EGVN

Flight info

Callsign PLMTR41
Flight time 4h 10m
Altitude 28000
Route NAXAT SWB DUF LMO LFA14 LUCCO Z248 OSMEG T256 DCS L612 HON
Aircraft A400/H-SGRWY/L

Departure

Time 2026-04-21 12:43
Airport RAF Brize Norton (EGVN)

Arrival

Time 2026-04-21 16:54
Airport RAF Brize Norton (EGVN)
Time Latitude Longitude Altitude Speed Heading
2026-04-21 12:30 51.75751 -1.57261 276 ft 0 kts 289°
2026-04-21 12:36 51.75755 -1.57282 273 ft 6 kts 288°
2026-04-21 12:37 51.75791 -1.57329 273 ft 7 kts 358°
2026-04-21 12:37 51.75846 -1.57306 273 ft 9 kts 18°
2026-04-21 12:37 51.75897 -1.57286 276 ft 0 kts 356°
2026-04-21 12:38 51.75921 -1.57313 273 ft 9 kts 303°
2026-04-21 12:38 51.75924 -1.57480 273 ft 21 kts 239°
2026-04-21 12:38 51.75772 -1.57584 275 ft 26 kts 197°
2026-04-21 12:38 51.75601 -1.57674 275 ft 25 kts 201°
2026-04-21 12:39 51.75440 -1.57802 273 ft 26 kts 208°
2026-04-21 12:39 51.75277 -1.57939 274 ft 27 kts 207°
2026-04-21 12:39 51.75102 -1.58093 274 ft 29 kts 208°
2026-04-21 12:39 51.74930 -1.58240 274 ft 27 kts 207°
2026-04-21 12:40 51.74760 -1.58385 274 ft 28 kts 209°
2026-04-21 12:40 51.74633 -1.58599 274 ft 28 kts 253°
2026-04-21 12:40 51.74578 -1.58906 273 ft 29 kts 253°
2026-04-21 12:40 51.74518 -1.59228 276 ft 31 kts 253°
2026-04-21 12:41 51.74460 -1.59538 278 ft 30 kts 253°
2026-04-21 12:41 51.74438 -1.59865 273 ft 27 kts 300°
2026-04-21 12:41 51.74490 -1.60120 278 ft 20 kts 250°
2026-04-21 12:41 51.74537 -1.60316 274 ft 20 kts 317°
2026-04-21 12:42 51.74613 -1.60352 278 ft 7 kts 39°
2026-04-21 12:42 51.74629 -1.60306 274 ft 3 kts 73°
2026-04-21 12:42 51.74680 -1.60027 272 ft 74 kts 73°
2026-04-21 12:42 51.74924 -1.58703 323 ft 161 kts 72°
2026-04-21 12:43 51.75295 -1.56706 602 ft 199 kts 70°
2026-04-21 12:43 51.75788 -1.54615 1616 ft 201 kts 58°
2026-04-21 12:43 51.76942 -1.53238 2429 ft 228 kts 18°
2026-04-21 12:43 51.78574 -1.53469 3403 ft 251 kts 338°
2026-04-21 12:44 51.79891 -1.55443 4467 ft 272 kts 301°
2026-04-21 12:44 51.80306 -1.58466 5533 ft 284 kts 263°
2026-04-21 12:44 51.79602 -1.61406 6701 ft 284 kts 230°
2026-04-21 12:44 51.78371 -1.63921 7845 ft 289 kts 233°
2026-04-21 12:45 51.77459 -1.66839 9064 ft 296 kts 246°
2026-04-21 12:45 51.77005 -1.70116 10303 ft 301 kts 266°
2026-04-21 12:45 51.77067 -1.73595 11152 ft 319 kts 275°
2026-04-21 12:45 51.77319 -1.77286 11666 ft 340 kts 277°
2026-04-21 12:46 51.77630 -1.81067 12470 ft 346 kts 278°
2026-04-21 12:46 51.77960 -1.84989 13120 ft 358 kts 278°
2026-04-21 12:46 51.78294 -1.88988 14081 ft 357 kts 278°
2026-04-21 12:46 51.78627 -1.93006 14808 ft 364 kts 278°
2026-04-21 12:47 51.78871 -1.97069 15772 ft 358 kts 278°
2026-04-21 12:47 51.79575 -2.00827 16777 ft 352 kts 300°
2026-04-21 12:47 51.81142 -2.03882 17507 ft 355 kts 319°
2026-04-21 12:47 51.82988 -2.06491 18332 ft 357 kts 320°
2026-04-21 12:48 51.84796 -2.09236 19288 ft 351 kts 316°
2026-04-21 12:48 51.86470 -2.12040 20344 ft 345 kts 313°
2026-04-21 12:48 51.88102 -2.14963 21021 ft 351 kts 311°
2026-04-21 12:48 51.89735 -2.17859 21697 ft 353 kts 320°
2026-04-21 12:49 51.91921 -2.19683 22527 ft 356 kts 340°
2026-04-21 12:49 51.94348 -2.20599 23361 ft 357 kts 344°
2026-04-21 12:49 51.96738 -2.21464 24074 ft 356 kts 342°
2026-04-21 12:49 51.99152 -2.22475 24591 ft 359 kts 340°
2026-04-21 12:50 52.01567 -2.23608 25049 ft 362 kts 339°
2026-04-21 12:50 52.03994 -2.24822 25471 ft 367 kts 339°
2026-04-21 12:50 52.06443 -2.26092 25862 ft 371 kts 338°
2026-04-21 12:50 52.08904 -2.27391 26313 ft 372 kts 338°
2026-04-21 12:51 52.11344 -2.28693 26759 ft 374 kts 337°
2026-04-21 12:51 52.13822 -2.30023 27181 ft 375 kts 337°
2026-04-21 12:51 52.16310 -2.31363 27653 ft 375 kts 337°
2026-04-21 12:51 52.18776 -2.32693 28152 ft 366 kts 336°
2026-04-21 12:52 52.21101 -2.33940 28347 ft 347 kts 336°
2026-04-21 12:52 52.25584 -2.36369 28349 ft 334 kts 336°
2026-04-21 12:53 52.29999 -2.38779 28346 ft 333 kts 336°
2026-04-21 12:53 52.34386 -2.41175 28346 ft 333 kts 336°
2026-04-21 12:54 52.38792 -2.43582 28351 ft 333 kts 336°
2026-04-21 12:54 52.43176 -2.45983 28352 ft 333 kts 336°
2026-04-21 12:55 52.47541 -2.48377 28356 ft 333 kts 336°
2026-04-21 12:55 52.51953 -2.50802 28360 ft 335 kts 336°
2026-04-21 12:56 52.56378 -2.53239 28360 ft 335 kts 336°
2026-04-21 12:56 52.60787 -2.55672 28359 ft 335 kts 336°
2026-04-21 12:57 52.65257 -2.58149 28359 ft 347 kts 336°
2026-04-21 12:57 52.67569 -2.59439 28357 ft 362 kts 336°
2026-04-21 12:57 52.69990 -2.60783 28360 ft 367 kts 336°
2026-04-21 12:58 52.74844 -2.63472 28380 ft 370 kts 336°
2026-04-21 12:58 52.79704 -2.66253 28373 ft 369 kts 335°
2026-04-21 12:58 52.82246 -2.67070 28377 ft 379 kts 351°
2026-04-21 12:59 52.84918 -2.66915 28375 ft 386 kts 358°
2026-04-21 12:59 52.90278 -2.65718 28374 ft 388 kts
2026-04-21 13:00 52.95607 -2.64647 28375 ft 386 kts 359°
2026-04-21 13:00 53.00938 -2.63918 28378 ft 386 kts 357°
2026-04-21 13:01 53.06316 -2.63339 28382 ft 387 kts 357°
2026-04-21 13:01 53.11710 -2.62779 28386 ft 387 kts 357°
2026-04-21 13:02 53.17072 -2.62206 28391 ft 387 kts 357°
2026-04-21 13:02 53.25140 -2.61328 28399 ft 390 kts 358°
2026-04-21 13:03 53.30593 -2.60732 28396 ft 392 kts 358°
2026-04-21 13:03 53.36025 -2.60133 28398 ft 393 kts 358°
2026-04-21 13:04 53.40570 -2.59630 28398 ft 393 kts 358°
2026-04-21 13:04 53.46049 -2.59024 28400 ft 393 kts 358°
2026-04-21 13:05 53.51468 -2.58425 28400 ft 393 kts 358°
2026-04-21 13:05 53.56954 -2.57814 28406 ft 398 kts 360°
2026-04-21 13:06 53.62502 -2.57200 28403 ft 399 kts 360°
2026-04-21 13:06 53.68026 -2.56584 28403 ft 399 kts
2026-04-21 13:07 53.73576 -2.55963 28410 ft 400 kts
2026-04-21 13:07 53.79163 -2.55339 28409 ft 401 kts 359°
2026-04-21 13:08 53.84704 -2.54714 28414 ft 402 kts 359°
2026-04-21 13:08 53.90281 -2.54085 28415 ft 402 kts
2026-04-21 13:09 53.95876 -2.53453 28420 ft 402 kts
2026-04-21 13:09 54.01444 -2.52823 28419 ft 403 kts
2026-04-21 13:10 54.07064 -2.52186 28434 ft 404 kts
2026-04-21 13:10 54.12679 -2.51548 28438 ft 404 kts
2026-04-21 13:11 54.18289 -2.50905 28438 ft 404 kts
2026-04-21 13:11 54.23877 -2.50262 28443 ft 405 kts
2026-04-21 13:12 54.29555 -2.49611 28446 ft 410 kts
2026-04-21 13:12 54.35233 -2.48957 28449 ft 411 kts
2026-04-21 13:13 54.40945 -2.48297 28452 ft 410 kts
2026-04-21 13:13 54.46650 -2.47636 28460 ft 410 kts
2026-04-21 13:14 54.52333 -2.46976 28458 ft 413 kts
2026-04-21 13:14 54.58102 -2.46304 28467 ft 414 kts
2026-04-21 13:15 54.63819 -2.45637 28473 ft 414 kts
2026-04-21 13:15 54.69595 -2.45333 28475 ft 415 kts 357°
2026-04-21 13:16 54.75349 -2.46597 28482 ft 418 kts 352°
2026-04-21 13:16 54.81067 -2.48335 28481 ft 421 kts 351°
2026-04-21 13:17 54.86825 -2.50034 28485 ft 420 kts 352°
2026-04-21 13:17 54.92609 -2.51638 28482 ft 421 kts 352°
2026-04-21 13:18 54.98407 -2.53208 28475 ft 422 kts 353°
2026-04-21 13:18 55.04211 -2.54778 28482 ft 421 kts 353°
2026-04-21 13:19 55.09998 -2.56349 28481 ft 421 kts 353°
2026-04-21 13:19 55.15762 -2.57926 28486 ft 422 kts 354°
2026-04-21 13:20 55.21568 -2.59522 28489 ft 421 kts 353°
2026-04-21 13:20 55.27339 -2.61111 28498 ft 419 kts 353°
2026-04-21 13:21 55.33099 -2.62701 28507 ft 418 kts 354°
2026-04-21 13:21 55.38846 -2.64289 28523 ft 417 kts 354°
2026-04-21 13:22 55.44573 -2.65875 28534 ft 417 kts 353°
2026-04-21 13:22 55.50328 -2.67479 28523 ft 417 kts 354°
2026-04-21 13:23 55.56027 -2.69071 28544 ft 416 kts 354°
2026-04-21 13:23 55.61754 -2.70672 28542 ft 416 kts 354°
2026-04-21 13:24 55.67472 -2.72276 28548 ft 416 kts 353°
2026-04-21 13:24 55.73157 -2.73879 28547 ft 416 kts 354°
2026-04-21 13:25 55.78891 -2.75497 28560 ft 415 kts 353°
2026-04-21 13:25 55.84581 -2.77110 28559 ft 414 kts 353°
2026-04-21 13:26 55.90280 -2.78730 28566 ft 414 kts 353°
2026-04-21 13:26 55.95937 -2.80342 28565 ft 414 kts 353°
2026-04-21 13:27 56.01645 -2.81974 28571 ft 414 kts 353°
2026-04-21 13:27 56.07298 -2.83595 28574 ft 414 kts 353°
2026-04-21 13:28 56.13005 -2.85236 28575 ft 414 kts 353°
2026-04-21 13:28 56.18711 -2.86881 28577 ft 415 kts 353°
2026-04-21 13:29 56.24425 -2.88534 28576 ft 415 kts 353°
2026-04-21 13:29 56.30110 -2.90184 28559 ft 414 kts 353°
2026-04-21 13:30 56.35773 -2.91833 28563 ft 414 kts 353°
2026-04-21 13:30 56.41472 -2.93496 28562 ft 414 kts 353°
2026-04-21 13:31 56.47178 -2.95166 28563 ft 414 kts 353°
2026-04-21 13:31 56.52822 -2.96824 28562 ft 414 kts 353°
2026-04-21 13:32 56.58523 -2.98503 28564 ft 413 kts 354°
2026-04-21 13:32 56.64207 -3.00183 28568 ft 413 kts 353°
2026-04-21 13:33 56.69882 -3.01865 28570 ft 413 kts 353°
2026-04-21 13:33 56.75518 -3.03541 28567 ft 413 kts 353°
2026-04-21 13:34 56.81189 -3.05233 28557 ft 413 kts 354°
2026-04-21 13:34 56.86855 -3.06928 28577 ft 412 kts 353°
2026-04-21 13:35 56.92496 -3.08622 28572 ft 412 kts 353°
2026-04-21 13:35 56.95311 -3.09470 28422 ft 402 kts 353°
2026-04-21 13:35 56.98046 -3.10309 27595 ft 397 kts 353°
2026-04-21 13:36 57.00792 -3.11254 26202 ft 406 kts 353°
2026-04-21 13:36 57.03587 -3.12165 24824 ft 415 kts 353°
2026-04-21 13:36 57.06472 -3.13099 23471 ft 420 kts 353°
2026-04-21 13:36 57.09322 -3.14029 22304 ft 417 kts 353°
2026-04-21 13:37 57.12135 -3.14944 21670 ft 403 kts 353°
2026-04-21 13:37 57.14834 -3.15833 21313 ft 383 kts 353°
2026-04-21 13:37 57.17403 -3.16695 21025 ft 365 kts 353°
2026-04-21 13:37 57.19843 -3.17493 20785 ft 348 kts 354°
2026-04-21 13:38 57.22169 -3.18215 20446 ft 338 kts 354°
2026-04-21 13:38 57.24470 -3.18935 19964 ft 333 kts 354°
2026-04-21 13:38 57.26726 -3.19646 19244 ft 320 kts 354°
2026-04-21 13:38 57.28875 -3.20323 17785 ft 310 kts 354°
2026-04-21 13:39 57.30997 -3.20981 16171 ft 309 kts 354°
2026-04-21 13:39 57.33108 -3.21650 14699 ft 306 kts 353°
2026-04-21 13:39 57.35196 -3.22294 13231 ft 306 kts 353°
2026-04-21 13:39 57.37334 -3.22904 12428 ft 310 kts 355°
2026-04-21 13:40 57.39438 -3.23515 12022 ft 303 kts 353°
2026-04-21 13:40 57.41477 -3.24124 11569 ft 298 kts 353°
2026-04-21 13:40 57.43516 -3.24723 11071 ft 295 kts 354°
2026-04-21 13:40 57.45532 -3.25298 10585 ft 293 kts 354°
2026-04-21 13:41 57.47544 -3.25892 10008 ft 292 kts 354°
2026-04-21 13:41 57.49548 -3.26493 9472 ft 290 kts 355°
2026-04-21 13:41 57.51531 -3.27084 8954 ft 287 kts 354°
2026-04-21 13:41 57.53496 -3.27661 8450 ft 284 kts 353°
2026-04-21 13:42 57.55452 -3.28255 7925 ft 283 kts 354°
2026-04-21 13:42 57.57368 -3.28848 7457 ft 280 kts 354°
2026-04-21 13:42 57.59286 -3.29436 6973 ft 277 kts 354°
2026-04-21 13:42 57.61183 -3.30011 6449 ft 275 kts 353°
2026-04-21 13:43 57.63068 -3.30575 5957 ft 272 kts 354°
2026-04-21 13:43 57.64900 -3.31125 5468 ft 270 kts 354°
2026-04-21 13:43 57.66775 -3.31700 4995 ft 266 kts 354°
2026-04-21 13:43 57.68565 -3.32253 4504 ft 263 kts 354°
2026-04-21 13:44 57.70368 -3.32796 4001 ft 261 kts 354°
2026-04-21 13:44 57.72153 -3.33342 3521 ft 257 kts 354°
2026-04-21 13:44 57.73919 -3.33883 3024 ft 254 kts 354°
2026-04-21 13:44 57.75606 -3.34392 2816 ft 242 kts 354°
2026-04-21 13:45 57.77225 -3.34895 2641 ft 229 kts 354°
2026-04-21 13:45 57.78733 -3.35315 2426 ft 207 kts
2026-04-21 13:45 57.80029 -3.34626 2305 ft 192 kts 37°
2026-04-21 13:45 57.80957 -3.32898 2214 ft 183 kts 58°
2026-04-21 13:46 57.81225 -3.30654 1878 ft 176 kts 98°
2026-04-21 13:46 57.80660 -3.28692 1803 ft 173 kts 128°
2026-04-21 13:46 57.79795 -3.27173 1650 ft 169 kts 141°
2026-04-21 13:46 57.78783 -3.26059 1353 ft 168 kts 148°
2026-04-21 13:47 57.77787 -3.25144 1321 ft 148 kts 152°
2026-04-21 13:47 57.76839 -3.24555 1306 ft 140 kts 158°
2026-04-21 13:47 57.75886 -3.24236 1269 ft 143 kts 182°
2026-04-21 13:47 57.75057 -3.25223 1125 ft 149 kts 226°
2026-04-21 13:48 57.74410 -3.26750 938 ft 149 kts 230°
2026-04-21 13:48 57.73744 -3.28233 732 ft 149 kts 226°
2026-04-21 13:48 57.73018 -3.29620 503 ft 149 kts 219°
2026-04-21 13:48 57.72270 -3.30918 285 ft 148 kts 222°
2026-04-21 13:49 57.71525 -3.32256 83 ft 148 kts 220°
2026-04-21 13:49 57.70637 -3.33830 210 ft 200 kts 223°
2026-04-21 13:49 57.69550 -3.35890 402 ft 243 kts 232°
2026-04-21 13:49 57.68879 -3.38906 951 ft 264 kts 251°
2026-04-21 13:50 57.68197 -3.42203 1483 ft 282 kts 253°
2026-04-21 13:50 57.67806 -3.45901 1769 ft 293 kts 267°
2026-04-21 13:50 57.68069 -3.49597 1798 ft 279 kts 293°
2026-04-21 13:50 57.68956 -3.52636 1803 ft 251 kts 307°
2026-04-21 13:51 57.69972 -3.55130 1801 ft 240 kts 314°
2026-04-21 13:51 57.71084 -3.57428 1796 ft 237 kts 317°
2026-04-21 13:51 57.72237 -3.59625 1794 ft 236 kts 319°
2026-04-21 13:51 57.73418 -3.61773 1793 ft 236 kts 320°
2026-04-21 13:52 57.74600 -3.63853 1791 ft 235 kts 321°
2026-04-21 13:52 57.75797 -3.65945 1791 ft 234 kts 320°
2026-04-21 13:52 57.76984 -3.68035 1792 ft 234 kts 320°
2026-04-21 13:52 57.78166 -3.70135 1794 ft 234 kts 320°
2026-04-21 13:53 57.78950 -3.71539 1791 ft 234 kts 320°
2026-04-21 13:53 57.80122 -3.73654 1786 ft 234 kts 320°
2026-04-21 13:53 57.81303 -3.75799 1780 ft 235 kts 320°
2026-04-21 13:53 57.82478 -3.77938 1783 ft 235 kts 319°
2026-04-21 13:54 57.83633 -3.80047 1791 ft 235 kts 320°
2026-04-21 13:54 57.84806 -3.82190 1777 ft 234 kts 320°
2026-04-21 13:54 57.85968 -3.84325 1779 ft 235 kts 317°
2026-04-21 13:54 57.87050 -3.86644 1772 ft 236 kts 313°
2026-04-21 13:55 57.88103 -3.89032 1789 ft 238 kts 312°
2026-04-21 13:55 57.89142 -3.91473 1775 ft 236 kts 312°
2026-04-21 13:55 57.90104 -3.93793 1470 ft 222 kts 312°
2026-04-21 13:55 57.91075 -3.96145 1298 ft 233 kts 312°
2026-04-21 13:56 57.92089 -3.98590 1107 ft 238 kts 310°
2026-04-21 13:56 57.93102 -4.01055 957 ft 237 kts 309°
2026-04-21 13:56 57.94033 -4.03588 749 ft 231 kts 307°
2026-04-21 13:56 57.94837 -4.06005 572 ft 211 kts 307°
2026-04-21 13:57 57.95689 -4.08186 476 ft 204 kts 315°
2026-04-21 13:57 57.96638 -4.10144 408 ft 201 kts 317°
2026-04-21 13:57 57.97536 -4.12172 365 ft 204 kts 302°
2026-04-21 13:57 57.98177 -4.14579 392 ft 205 kts 298°
2026-04-21 13:58 57.98961 -4.16727 488 ft 201 kts 327°
2026-04-21 13:58 58.00093 -4.18179 507 ft 203 kts 306°
2026-04-21 13:58 58.00388 -4.20763 530 ft 204 kts 272°
2026-04-21 13:58 58.00445 -4.23528 704 ft 214 kts 271°
2026-04-21 13:59 58.00500 -4.26273 699 ft 206 kts 294°
2026-04-21 13:59 58.01326 -4.28401 744 ft 207 kts 311°
2026-04-21 13:59 58.02062 -4.30752 847 ft 208 kts 303°
2026-04-21 13:59 58.03072 -4.32630 903 ft 205 kts 330°
2026-04-21 14:00 58.04264 -4.34081 949 ft 202 kts 333°
2026-04-21 14:00 58.05531 -4.35179 984 ft 200 kts 340°
2026-04-21 14:00 58.06808 -4.36284 990 ft 200 kts 338°
2026-04-21 14:00 58.08058 -4.37413 1042 ft 201 kts 340°
2026-04-21 14:01 58.09285 -4.38681 1049 ft 202 kts 328°
2026-04-21 14:01 58.10372 -4.40380 1000 ft 202 kts 322°
2026-04-21 14:01 58.11342 -4.42332 986 ft 207 kts 315°
2026-04-21 14:01 58.12355 -4.44269 961 ft 207 kts 319°
2026-04-21 14:02 58.13418 -4.46143 984 ft 209 kts 320°
2026-04-21 14:02 58.14506 -4.47984 987 ft 206 kts 324°
2026-04-21 14:02 58.15727 -4.49304 994 ft 204 kts 345°
2026-04-21 14:03 58.18496 -4.50035 1209 ft 197 kts 355°
2026-04-21 14:03 58.19846 -4.50187 1244 ft 192 kts 11°
2026-04-21 14:03 58.21126 -4.49570 1182 ft 191 kts 21°
2026-04-21 14:03 58.22420 -4.48974 1054 ft 188 kts 23°
2026-04-21 14:04 58.23595 -4.47942 1000 ft 188 kts 26°
2026-04-21 14:04 58.24876 -4.47702 1178 ft 197 kts 343°
2026-04-21 14:04 58.26155 -4.48755 1403 ft 206 kts 338°
2026-04-21 14:04 58.27363 -4.50218 1359 ft 208 kts 329°
2026-04-21 14:05 58.28366 -4.52208 1267 ft 214 kts 310°
2026-04-21 14:05 58.29377 -4.54237 1179 ft 208 kts 330°
2026-04-21 14:05 58.30637 -4.55543 1090 ft 206 kts 339°
2026-04-21 14:05 58.31882 -4.56839 1002 ft 206 kts 326°
2026-04-21 14:06 58.32736 -4.59012 868 ft 213 kts 301°
2026-04-21 14:06 58.33357 -4.61617 766 ft 221 kts 290°
2026-04-21 14:06 58.33521 -4.64494 687 ft 220 kts 274°
2026-04-21 14:06 58.33872 -4.67198 714 ft 208 kts 298°
2026-04-21 14:07 58.34717 -4.69424 816 ft 207 kts 314°
2026-04-21 14:07 58.35671 -4.71411 943 ft 204 kts 320°
2026-04-21 14:07 58.36767 -4.73117 965 ft 203 kts 324°
2026-04-21 14:07 58.37852 -4.74895 946 ft 204 kts 327°
2026-04-21 14:08 58.39029 -4.76359 1083 ft 207 kts 322°
2026-04-21 14:08 58.39644 -4.78841 1139 ft 213 kts 290°
2026-04-21 14:08 58.40442 -4.81095 854 ft 204 kts 325°
2026-04-21 14:08 58.41614 -4.82596 715 ft 202 kts 332°
2026-04-21 14:09 58.42812 -4.83933 702 ft 199 kts 337°
2026-04-21 14:09 58.43848 -4.85716 839 ft 206 kts 305°
2026-04-21 14:09 58.44305 -4.88356 1029 ft 213 kts 281°
2026-04-21 14:09 58.44432 -4.91159 1112 ft 213 kts 267°
2026-04-21 14:10 58.43921 -4.93837 1050 ft 218 kts 232°
2026-04-21 14:10 58.42756 -4.95609 1030 ft 214 kts 207°
2026-04-21 14:10 58.41467 -4.96978 1025 ft 217 kts 205°
2026-04-21 14:10 58.40158 -4.98364 1045 ft 212 kts 205°
2026-04-21 14:11 58.38851 -4.99750 1097 ft 214 kts 206°
2026-04-21 14:11 58.37572 -5.01184 750 ft 216 kts 209°
2026-04-21 14:11 58.36396 -5.02915 442 ft 210 kts 218°
2026-04-21 14:11 58.35154 -5.04335 829 ft 208 kts 204°
2026-04-21 14:12 58.33855 -5.05594 931 ft 208 kts 203°
2026-04-21 14:12 58.32712 -5.07339 1008 ft 215 kts 229°
2026-04-21 14:12 58.31826 -5.09611 922 ft 216 kts 232°
2026-04-21 14:12 58.30907 -5.11875 809 ft 214 kts 225°
2026-04-21 14:13 58.29661 -5.13192 669 ft 203 kts 180°
2026-04-21 14:13 58.28322 -5.12636 521 ft 196 kts 146°
2026-04-21 14:13 58.27285 -5.11008 418 ft 193 kts 131°
2026-04-21 14:13 58.26395 -5.09124 375 ft 190 kts 122°
2026-04-21 14:14 58.25941 -5.07521 307 ft 188 kts 111°
2026-04-21 14:14 58.25576 -5.05421 273 ft 187 kts 101°
2026-04-21 14:14 58.25252 -5.03072 571 ft 189 kts 116°
2026-04-21 14:14 58.24155 -5.01597 906 ft 203 kts 156°
2026-04-21 14:15 58.22837 -5.00716 862 ft 198 kts 154°
2026-04-21 14:15 58.21551 -5.00035 1133 ft 185 kts 193°
2026-04-21 14:15 58.20247 -5.00988 1332 ft 218 kts 196°
2026-04-21 14:15 58.18781 -5.01324 1001 ft 206 kts 161°
2026-04-21 14:16 58.17456 -5.00470 520 ft 199 kts 156°
2026-04-21 14:16 58.16216 -4.99343 396 ft 196 kts 146°
2026-04-21 14:16 58.15025 -4.98080 505 ft 193 kts 152°
2026-04-21 14:16 58.13677 -4.97883 557 ft 200 kts 175°
2026-04-21 14:17 58.12311 -4.97612 663 ft 193 kts 153°
2026-04-21 14:17 58.11012 -4.96946 833 ft 201 kts 175°
2026-04-21 14:17 58.09612 -4.97394 917 ft 204 kts 185°
2026-04-21 14:17 58.08255 -4.97859 913 ft 199 kts 184°
2026-04-21 14:18 58.06931 -4.97846 883 ft 187 kts 147°
2026-04-21 14:18 58.05982 -4.96198 756 ft 187 kts 129°
2026-04-21 14:18 58.05182 -4.94288 757 ft 182 kts 120°
2026-04-21 14:18 58.04460 -4.92328 827 ft 183 kts 121°
2026-04-21 14:19 58.03839 -4.90224 820 ft 184 kts 122°
2026-04-21 14:19 58.02972 -4.88425 831 ft 188 kts 136°
2026-04-21 14:19 58.01956 -4.86939 880 ft 185 kts 134°
2026-04-21 14:19 58.01126 -4.85172 835 ft 178 kts 119°
2026-04-21 14:20 58.00518 -4.83125 746 ft 180 kts 115°
2026-04-21 14:20 57.99883 -4.81072 566 ft 181 kts 130°
2026-04-21 14:20 57.98825 -4.79742 543 ft 184 kts 144°
2026-04-21 14:20 57.97822 -4.78295 501 ft 179 kts 131°
2026-04-21 14:21 57.97030 -4.76454 634 ft 181 kts 140°
2026-04-21 14:21 57.95833 -4.75492 752 ft 191 kts 156°
2026-04-21 14:21 57.94609 -4.74551 958 ft 194 kts 150°
2026-04-21 14:21 57.93395 -4.73459 1020 ft 191 kts 150°
2026-04-21 14:22 57.92543 -4.71832 874 ft 174 kts 101°
2026-04-21 14:22 57.92295 -4.69533 802 ft 180 kts 107°
2026-04-21 14:22 57.91560 -4.67594 754 ft 187 kts 127°
2026-04-21 14:22 57.90718 -4.65774 751 ft 184 kts 126°
2026-04-21 14:23 57.89903 -4.63970 780 ft 182 kts 125°
2026-04-21 14:23 57.88934 -4.62407 728 ft 180 kts 126°
2026-04-21 14:23 57.88403 -4.60399 658 ft 176 kts 103°
2026-04-21 14:23 57.87964 -4.58214 813 ft 184 kts 128°
2026-04-21 14:24 57.86705 -4.58046 890 ft 209 kts 202°
2026-04-21 14:24 57.85384 -4.59013 1013 ft 200 kts 194°
2026-04-21 14:24 57.84552 -4.61057 1444 ft 205 kts 263°
2026-04-21 14:24 57.84502 -4.63906 1685 ft 230 kts 266°
2026-04-21 14:25 57.84443 -4.66858 1451 ft 227 kts 256°
2026-04-21 14:25 57.83636 -4.69233 1082 ft 213 kts 225°
2026-04-21 14:25 57.82872 -4.71625 1141 ft 219 kts 245°
2026-04-21 14:25 57.82070 -4.73967 1222 ft 212 kts 232°
2026-04-21 14:26 57.81348 -4.76366 1432 ft 216 kts 261°
2026-04-21 14:26 57.81311 -4.79166 1434 ft 213 kts 256°
2026-04-21 14:26 57.80939 -4.81889 1471 ft 221 kts 257°
2026-04-21 14:26 57.81200 -4.84607 1536 ft 218 kts 305°
2026-04-21 14:27 57.81656 -4.87252 1961 ft 215 kts 259°
2026-04-21 14:27 57.81099 -4.89823 2659 ft 220 kts 258°
2026-04-21 14:27 57.80819 -4.92740 2999 ft 231 kts 257°
2026-04-21 14:27 57.80477 -4.95738 2444 ft 235 kts 256°
2026-04-21 14:28 57.80861 -4.98476 1476 ft 223 kts 315°
2026-04-21 14:28 57.81755 -5.00830 1000 ft 219 kts 303°
2026-04-21 14:28 57.82079 -5.03557 708 ft 221 kts 270°
2026-04-21 14:28 57.81661 -5.06106 542 ft 203 kts 214°
2026-04-21 14:29 57.80477 -5.06168 462 ft 174 kts 146°
2026-04-21 14:29 57.79386 -5.04980 577 ft 185 kts 144°
2026-04-21 14:29 57.78177 -5.04086 704 ft 191 kts 160°
2026-04-21 14:29 57.76849 -5.03864 813 ft 193 kts 176°
2026-04-21 14:30 57.75506 -5.04642 1093 ft 208 kts 197°
2026-04-21 14:30 57.74285 -5.06065 1280 ft 211 kts 226°
2026-04-21 14:30 57.73565 -5.08496 1395 ft 222 kts 239°
2026-04-21 14:30 57.72810 -5.11016 1433 ft 224 kts 239°
2026-04-21 14:31 57.72058 -5.13508 1458 ft 217 kts 231°
2026-04-21 14:31 57.71028 -5.15530 1479 ft 212 kts 210°
2026-04-21 14:31 57.69704 -5.16631 1666 ft 207 kts 193°
2026-04-21 14:31 57.68325 -5.17392 1889 ft 210 kts 196°
2026-04-21 14:32 57.67066 -5.18703 1915 ft 215 kts 211°
2026-04-21 14:32 57.65863 -5.20359 2016 ft 210 kts 212°
2026-04-21 14:32 57.64662 -5.21904 1876 ft 212 kts 209°
2026-04-21 14:32 57.63303 -5.22630 950 ft 213 kts 187°
2026-04-21 14:33 57.62014 -5.23907 778 ft 213 kts 213°
2026-04-21 14:33 57.61029 -5.25969 693 ft 219 kts 239°
2026-04-21 14:33 57.60573 -5.28680 624 ft 219 kts 246°
2026-04-21 14:33 57.59607 -5.30628 648 ft 201 kts 199°
2026-04-21 14:34 57.58298 -5.31586 671 ft 203 kts 197°
2026-04-21 14:34 57.57159 -5.33122 757 ft 210 kts 231°
2026-04-21 14:34 57.56500 -5.35559 742 ft 211 kts 250°
2026-04-21 14:34 57.56103 -5.38208 776 ft 218 kts 253°
2026-04-21 14:35 57.55588 -5.40812 756 ft 212 kts 244°
2026-04-21 14:35 57.55136 -5.43460 739 ft 213 kts 257°
2026-04-21 14:35 57.54775 -5.46133 611 ft 211 kts 239°
2026-04-21 14:35 57.54218 -5.48650 612 ft 214 kts 261°
2026-04-21 14:36 57.54199 -5.51429 673 ft 216 kts 272°
2026-04-21 14:36 57.54276 -5.54276 915 ft 223 kts 273°
2026-04-21 14:36 57.54375 -5.57124 946 ft 218 kts 273°
2026-04-21 14:36 57.54480 -5.59907 951 ft 217 kts 275°
2026-04-21 14:37 57.54579 -5.62701 949 ft 215 kts 271°
2026-04-21 14:37 57.54346 -5.65432 953 ft 213 kts 247°
2026-04-21 14:37 57.53577 -5.67751 978 ft 209 kts 224°
2026-04-21 14:37 57.52477 -5.69449 1032 ft 209 kts 209°
2026-04-21 14:38 57.51225 -5.70809 1244 ft 208 kts 201°
2026-04-21 14:38 57.49917 -5.71952 1510 ft 209 kts 206°
2026-04-21 14:38 57.48734 -5.73651 1325 ft 216 kts 217°
2026-04-21 14:38 57.47587 -5.75412 934 ft 212 kts 217°
2026-04-21 14:39 57.46481 -5.77218 691 ft 210 kts 221°
2026-04-21 14:39 57.45398 -5.78928 650 ft 202 kts 200°
2026-04-21 14:39 57.44041 -5.79064 948 ft 195 kts 162°
2026-04-21 14:39 57.42899 -5.77924 1320 ft 183 kts 130°
2026-04-21 14:40 57.42539 -5.76555 1599 ft 180 kts 95°
2026-04-21 14:40 57.42789 -5.74278 1983 ft 183 kts 78°
2026-04-21 14:40 57.42314 -5.71416 2461 ft 194 kts 140°
2026-04-21 14:40 57.41495 -5.70633 2396 ft 196 kts 152°
2026-04-21 14:41 57.40669 -5.68808 1671 ft 194 kts 103°
2026-04-21 14:41 57.40386 -5.66457 1238 ft 188 kts 120°
2026-04-21 14:41 57.39271 -5.65209 725 ft 197 kts 168°
2026-04-21 14:41 57.37899 -5.65421 355 ft 203 kts 193°
2026-04-21 14:42 57.36541 -5.66155 284 ft 203 kts 190°
2026-04-21 14:42 57.35177 -5.66809 275 ft 202 kts 189°
2026-04-21 14:42 57.33829 -5.67185 329 ft 200 kts 191°
2026-04-21 14:42 57.32849 -5.68939 349 ft 207 kts 251°
2026-04-21 14:43 57.32479 -5.71562 392 ft 211 kts 254°
2026-04-21 14:43 57.32068 -5.74163 422 ft 210 kts 254°
2026-04-21 14:43 57.31327 -5.76393 430 ft 203 kts 212°
2026-04-21 14:43 57.30027 -5.77022 336 ft 196 kts 169°
2026-04-21 14:44 57.28799 -5.76107 311 ft 189 kts 140°
2026-04-21 14:44 57.27939 -5.74329 327 ft 184 kts 116°
2026-04-21 14:44 57.27612 -5.72049 380 ft 187 kts 96°
2026-04-21 14:44 57.27458 -5.69684 508 ft 186 kts 97°
2026-04-21 14:45 57.27311 -5.67330 590 ft 184 kts 97°
2026-04-21 14:45 57.26776 -5.65252 595 ft 185 kts 131°
2026-04-21 14:45 57.25618 -5.64153 619 ft 195 kts 170°
2026-04-21 14:45 57.24332 -5.64993 600 ft 205 kts 212°
2026-04-21 14:46 57.23046 -5.65976 553 ft 197 kts 181°
2026-04-21 14:46 57.21669 -5.66173 536 ft 199 kts 182°
2026-04-21 14:46 57.20337 -5.66827 582 ft 203 kts 200°
2026-04-21 14:46 57.19093 -5.67896 458 ft 184 kts 184°
2026-04-21 14:47 57.17954 -5.69092 534 ft 202 kts 220°
2026-04-21 14:47 57.16919 -5.70933 658 ft 209 kts 222°
2026-04-21 14:47 57.15865 -5.72673 602 ft 199 kts 216°
2026-04-21 14:47 57.14757 -5.74150 437 ft 198 kts 209°
2026-04-21 14:48 57.13568 -5.75503 421 ft 203 kts 207°
2026-04-21 14:48 57.12348 -5.76790 427 ft 204 kts 205°
2026-04-21 14:48 57.11105 -5.78068 432 ft 203 kts 205°
2026-04-21 14:48 57.09836 -5.79201 428 ft 202 kts 197°
2026-04-21 14:49 57.08505 -5.80022 428 ft 201 kts 195°
2026-04-21 14:49 57.07169 -5.80756 435 ft 200 kts 193°
2026-04-21 14:49 57.05825 -5.81435 432 ft 200 kts 191°
2026-04-21 14:49 57.04469 -5.82087 433 ft 201 kts 192°
2026-04-21 14:50 57.03117 -5.82725 422 ft 203 kts 190°
2026-04-21 14:50 57.01755 -5.83356 422 ft 200 kts 187°
2026-04-21 14:50 57.00395 -5.83592 415 ft 195 kts 178°
2026-04-21 14:50 56.99030 -5.83550 552 ft 195 kts 167°
2026-04-21 14:51 56.97689 -5.83147 683 ft 197 kts 171°
2026-04-21 14:51 56.96310 -5.83178 745 ft 199 kts 184°
2026-04-21 14:51 56.94976 -5.83873 757 ft 201 kts 196°
2026-04-21 14:51 56.93642 -5.84652 790 ft 202 kts 193°
2026-04-21 14:52 56.92304 -5.85064 803 ft 194 kts 167°
2026-04-21 14:52 56.91181 -5.83882 745 ft 188 kts 127°
2026-04-21 14:52 56.90537 -5.81799 734 ft 190 kts 117°
2026-04-21 14:52 56.89950 -5.79638 620 ft 188 kts 110°
2026-04-21 14:53 56.89932 -5.77307 589 ft 185 kts 83°
2026-04-21 14:53 56.89538 -5.75171 581 ft 186 kts 121°
2026-04-21 14:53 56.88868 -5.73144 449 ft 184 kts 114°
2026-04-21 14:53 56.88477 -5.70895 630 ft 188 kts 126°
2026-04-21 14:54 56.87642 -5.69164 469 ft 186 kts 105°
2026-04-21 14:54 56.87751 -5.66824 425 ft 191 kts 70°
2026-04-21 14:54 56.88481 -5.64846 352 ft 184 kts 78°
2026-04-21 14:54 56.88304 -5.62607 370 ft 182 kts 101°
2026-04-21 14:55 56.88109 -5.60336 365 ft 182 kts 103°
2026-04-21 14:55 56.87780 -5.58087 372 ft 181 kts 97°
2026-04-21 14:55 56.87705 -5.55833 355 ft 184 kts 110°
2026-04-21 14:55 56.87469 -5.53496 528 ft 188 kts 90°
2026-04-21 14:56 56.87439 -5.51218 712 ft 179 kts 78°
2026-04-21 14:56 56.87673 -5.48897 705 ft 188 kts 81°
2026-04-21 14:56 56.87473 -5.46593 654 ft 187 kts 114°
2026-04-21 14:56 56.86984 -5.44395 535 ft 186 kts 107°
2026-04-21 14:57 56.86576 -5.42199 435 ft 186 kts 116°
2026-04-21 14:57 56.86074 -5.40025 483 ft 185 kts 103°
2026-04-21 14:57 56.85899 -5.37697 452 ft 185 kts 98°
2026-04-21 14:57 56.85705 -5.35357 431 ft 185 kts 99°
2026-04-21 14:58 56.85539 -5.33028 453 ft 185 kts 97°
2026-04-21 14:58 56.85390 -5.30666 462 ft 184 kts 97°
2026-04-21 14:58 56.85226 -5.28339 457 ft 184 kts 98°
2026-04-21 14:58 56.85033 -5.26028 513 ft 181 kts 99°
2026-04-21 14:59 56.84817 -5.23783 514 ft 182 kts 101°
2026-04-21 14:59 56.84591 -5.21495 502 ft 185 kts 94°
2026-04-21 14:59 56.84711 -5.19161 453 ft 182 kts 86°
2026-04-21 14:59 56.84774 -5.16835 511 ft 181 kts 93°
2026-04-21 15:00 56.84631 -5.14566 581 ft 181 kts 102°
2026-04-21 15:00 56.84133 -5.12434 664 ft 184 kts 123°
2026-04-21 15:00 56.83017 -5.11465 560 ft 192 kts 179°
2026-04-21 15:00 56.81769 -5.12547 467 ft 206 kts 214°
2026-04-21 15:01 56.80606 -5.14044 418 ft 206 kts 208°
2026-04-21 15:01 56.79414 -5.15496 404 ft 207 kts 209°
2026-04-21 15:01 56.78243 -5.16974 407 ft 206 kts 211°
2026-04-21 15:01 56.77067 -5.18440 443 ft 204 kts 210°
2026-04-21 15:02 56.75873 -5.19829 488 ft 202 kts 207°
2026-04-21 15:02 56.74662 -5.21121 536 ft 202 kts 206°
2026-04-21 15:02 56.73472 -5.22472 578 ft 203 kts 208°
2026-04-21 15:02 56.72275 -5.23842 595 ft 204 kts 206°
2026-04-21 15:03 56.71019 -5.24969 538 ft 198 kts 187°
2026-04-21 15:03 56.69819 -5.24306 516 ft 180 kts 128°
2026-04-21 15:03 56.69404 -5.22179 564 ft 185 kts 101°
2026-04-21 15:03 56.69090 -5.19944 583 ft 186 kts 106°
2026-04-21 15:04 56.68849 -5.17640 542 ft 186 kts 95°
2026-04-21 15:04 56.68756 -5.15325 554 ft 183 kts 96°
2026-04-21 15:04 56.68578 -5.13018 613 ft 183 kts 98°
2026-04-21 15:04 56.68337 -5.10752 603 ft 180 kts 112°
2026-04-21 15:05 56.67530 -5.09026 552 ft 185 kts 140°
2026-04-21 15:05 56.66364 -5.05231 731 ft 183 kts 92°
2026-04-21 15:05 56.66607 -5.02936 897 ft 186 kts 73°
2026-04-21 15:06 56.66728 -5.00625 1004 ft 184 kts 100°
2026-04-21 15:06 56.66530 -4.98357 1109 ft 180 kts 101°
2026-04-21 15:06 56.66333 -4.96095 1505 ft 186 kts 93°
2026-04-21 15:06 56.66425 -4.93728 1646 ft 188 kts 89°
2026-04-21 15:07 56.66302 -4.91387 1711 ft 184 kts 96°
2026-04-21 15:07 56.66030 -4.89132 1757 ft 185 kts 111°
2026-04-21 15:07 56.65049 -4.87714 1688 ft 194 kts 165°
2026-04-21 15:07 56.63716 -4.88374 1536 ft 211 kts 210°
2026-04-21 15:08 56.62650 -4.90257 1352 ft 214 kts 226°
2026-04-21 15:08 56.61909 -4.92558 1158 ft 220 kts 257°
2026-04-21 15:08 56.61666 -4.95258 977 ft 215 kts 258°
2026-04-21 15:08 56.61511 -4.97949 781 ft 215 kts 250°
2026-04-21 15:09 56.60617 -5.00006 619 ft 208 kts 214°
2026-04-21 15:09 56.59395 -5.01397 573 ft 207 kts 208°
2026-04-21 15:09 56.58199 -5.02845 644 ft 208 kts 211°
2026-04-21 15:09 56.57073 -5.04522 681 ft 213 kts 226°
2026-04-21 15:10 56.56214 -5.06689 653 ft 211 kts 219°
2026-04-21 15:10 56.54995 -5.08002 644 ft 203 kts 204°
2026-04-21 15:10 56.53767 -5.09334 640 ft 203 kts 210°
2026-04-21 15:10 56.52604 -5.10771 598 ft 202 kts 212°
2026-04-21 15:11 56.51415 -5.12044 573 ft 199 kts 201°
2026-04-21 15:11 56.50174 -5.13137 539 ft 198 kts 201°
2026-04-21 15:11 56.48968 -5.14346 530 ft 199 kts 207°
2026-04-21 15:11 56.47780 -5.15623 512 ft 200 kts 205°
2026-04-21 15:12 56.46586 -5.16952 484 ft 203 kts 214°
2026-04-21 15:12 56.45712 -5.18989 436 ft 207 kts 236°
2026-04-21 15:12 56.44949 -5.21197 454 ft 209 kts 240°
2026-04-21 15:12 56.44748 -5.23712 570 ft 209 kts 285°
2026-04-21 15:13 56.45212 -5.26194 482 ft 208 kts 289°
2026-04-21 15:13 56.45660 -5.28694 475 ft 209 kts 287°
2026-04-21 15:13 56.46127 -5.31178 436 ft 209 kts 290°
2026-04-21 15:13 56.46547 -5.33652 435 ft 197 kts 282°
2026-04-21 15:14 56.46700 -5.35946 582 ft 176 kts 266°
2026-04-21 15:14 56.46569 -5.38040 589 ft 167 kts 263°
2026-04-21 15:14 56.46435 -5.40134 595 ft 166 kts 261°
2026-04-21 15:14 56.46818 -5.42033 531 ft 163 kts 322°
2026-04-21 15:15 56.47795 -5.42599 414 ft 140 kts 13°
2026-04-21 15:15 56.48410 -5.41682 314 ft 109 kts 86°
2026-04-21 15:15 56.48055 -5.40478 274 ft 112 kts 134°
2026-04-21 15:15 56.47370 -5.39886 128 ft 111 kts 172°
2026-04-21 15:16 56.46444 -5.39981 94 ft 160 kts 182°
2026-04-21 15:16 56.45530 -5.39128 465 ft 170 kts 110°
2026-04-21 15:16 56.45662 -5.36786 694 ft 212 kts 74°
2026-04-21 15:16 56.46024 -5.34412 642 ft 189 kts 77°
2026-04-21 15:17 56.46387 -5.32029 945 ft 181 kts 76°
2026-04-21 15:17 56.46718 -5.29861 1386 ft 190 kts 78°
2026-04-21 15:17 56.46816 -5.27523 1737 ft 178 kts 98°
2026-04-21 15:17 56.46004 -5.26098 1140 ft 175 kts 141°
2026-04-21 15:18 56.45042 -5.24654 753 ft 182 kts 134°
2026-04-21 15:18 56.44107 -5.23056 569 ft 188 kts 135°
2026-04-21 15:18 56.43137 -5.21428 475 ft 190 kts 135°
2026-04-21 15:18 56.42170 -5.19764 502 ft 191 kts 129°
2026-04-21 15:19 56.41411 -5.17866 524 ft 189 kts 124°
2026-04-21 15:19 56.40523 -5.16090 625 ft 186 kts 128°
2026-04-21 15:19 56.39906 -5.14071 619 ft 186 kts 112°
2026-04-21 15:19 56.39388 -5.11948 584 ft 183 kts 118°
2026-04-21 15:20 56.38736 -5.09984 540 ft 181 kts 116°
2026-04-21 15:20 56.38394 -5.07804 469 ft 184 kts 94°
2026-04-21 15:20 56.38641 -5.05600 397 ft 181 kts 49°
2026-04-21 15:20 56.39700 -5.04300 348 ft 188 kts 43°
2026-04-21 15:21 56.40325 -5.02327 439 ft 183 kts 83°
2026-04-21 15:21 56.40268 -5.00043 482 ft 183 kts 94°
2026-04-21 15:21 56.40403 -4.97776 526 ft 185 kts 78°
2026-04-21 15:21 56.40421 -4.95471 546 ft 183 kts 97°
2026-04-21 15:22 56.40418 -4.93185 687 ft 182 kts 89°
2026-04-21 15:22 56.40289 -4.90949 875 ft 177 kts 97°
2026-04-21 15:22 56.40176 -4.88699 1038 ft 181 kts 95°
2026-04-21 15:22 56.40476 -4.86589 1096 ft 184 kts 59°
2026-04-21 15:23 56.41433 -4.85001 1123 ft 191 kts 39°
2026-04-21 15:23 56.42473 -4.83517 1221 ft 187 kts 50°
2026-04-21 15:23 56.43301 -4.81765 1234 ft 181 kts 59°
2026-04-21 15:23 56.43879 -4.79753 1243 ft 183 kts 72°
2026-04-21 15:24 56.44174 -4.78313 1314 ft 183 kts 70°
2026-04-21 15:24 56.44506 -4.76136 1278 ft 175 kts 97°
2026-04-21 15:24 56.44134 -4.73245 1216 ft 181 kts 110°
2026-04-21 15:24 56.43484 -4.71288 1184 ft 184 kts 124°
2026-04-21 15:25 56.42981 -4.70005 1144 ft 187 kts 124°
2026-04-21 15:25 56.42227 -4.68100 1091 ft 191 kts 122°
2026-04-21 15:25 56.41479 -4.66113 1076 ft 186 kts 124°
2026-04-21 15:25 56.40661 -4.64316 1066 ft 187 kts 132°
2026-04-21 15:26 56.39670 -4.62761 1095 ft 188 kts 137°
2026-04-21 15:26 56.38504 -4.62824 1511 ft 200 kts 213°
2026-04-21 15:26 56.37513 -4.64784 1350 ft 215 kts 224°
2026-04-21 15:26 56.36499 -4.66733 1210 ft 212 kts 224°
2026-04-21 15:27 56.35531 -4.68751 1071 ft 214 kts 225°
2026-04-21 15:27 56.34615 -4.70896 852 ft 216 kts 229°
2026-04-21 15:27 56.33424 -4.72225 701 ft 199 kts 181°
2026-04-21 15:27 56.32055 -4.72280 591 ft 196 kts 169°
2026-04-21 15:28 56.30762 -4.71860 476 ft 188 kts 153°
2026-04-21 15:28 56.29538 -4.70954 413 ft 191 kts 152°
2026-04-21 15:28 56.28351 -4.69936 388 ft 187 kts 156°
2026-04-21 15:28 56.27042 -4.69698 392 ft 195 kts 175°
2026-04-21 15:29 56.25687 -4.69736 347 ft 194 kts 173°
2026-04-21 15:29 56.24334 -4.69652 330 ft 192 kts 170°
2026-04-21 15:29 56.22986 -4.69498 307 ft 194 kts 168°
2026-04-21 15:29 56.21646 -4.69235 271 ft 195 kts 170°
2026-04-21 15:30 56.20311 -4.68967 202 ft 194 kts 165°
2026-04-21 15:30 56.19034 -4.68366 172 ft 188 kts 152°
2026-04-21 15:30 56.17887 -4.67281 224 ft 186 kts 147°
2026-04-21 15:30 56.16676 -4.66382 226 ft 190 kts 156°
2026-04-21 15:31 56.15376 -4.65813 228 ft 190 kts 157°
2026-04-21 15:31 56.14097 -4.65171 244 ft 191 kts 158°
2026-04-21 15:31 56.12811 -4.64553 240 ft 192 kts 158°
2026-04-21 15:31 56.11602 -4.63643 205 ft 189 kts 144°
2026-04-21 15:32 56.10497 -4.62429 178 ft 184 kts 137°
2026-04-21 15:32 56.09511 -4.60983 217 ft 186 kts 147°
2026-04-21 15:32 56.08272 -4.61448 245 ft 195 kts 198°
2026-04-21 15:32 56.06994 -4.62052 284 ft 199 kts 188°
2026-04-21 15:33 56.05636 -4.62698 398 ft 202 kts 192°
2026-04-21 15:33 56.04339 -4.63686 480 ft 206 kts 207°
2026-04-21 15:33 56.03247 -4.65434 579 ft 218 kts 232°
2026-04-21 15:33 56.02664 -4.67939 765 ft 219 kts 255°
2026-04-21 15:34 56.02167 -4.70542 850 ft 224 kts 247°
2026-04-21 15:34 56.01352 -4.72755 852 ft 212 kts 215°
2026-04-21 15:34 56.00203 -4.74426 564 ft 212 kts 213°
2026-04-21 15:34 55.99004 -4.76021 310 ft 217 kts 212°
2026-04-21 15:35 55.98039 -4.78020 467 ft 213 kts 242°
2026-04-21 15:35 55.97476 -4.80395 407 ft 200 kts 234°
2026-04-21 15:35 55.96452 -4.81909 391 ft 193 kts 202°
2026-04-21 15:35 55.95609 -4.83989 301 ft 233 kts 244°
2026-04-21 15:36 55.94848 -4.86790 362 ft 262 kts 240°
2026-04-21 15:36 55.93592 -4.89027 315 ft 260 kts 204°
2026-04-21 15:36 55.91922 -4.90175 275 ft 256 kts 196°
2026-04-21 15:36 55.90254 -4.91317 379 ft 254 kts 199°
2026-04-21 15:37 55.88578 -4.92238 403 ft 254 kts 187°
2026-04-21 15:37 55.86831 -4.92655 407 ft 252 kts 172°
2026-04-21 15:37 55.85155 -4.91690 763 ft 259 kts 152°
2026-04-21 15:37 55.83447 -4.90451 1419 ft 267 kts 152°
2026-04-21 15:38 55.81765 -4.89207 2600 ft 257 kts 153°
2026-04-21 15:38 55.80150 -4.88063 3928 ft 248 kts 154°
2026-04-21 15:38 55.78546 -4.86943 5268 ft 247 kts 154°
2026-04-21 15:38 55.76938 -4.85816 6577 ft 248 kts 154°
2026-04-21 15:39 55.75324 -4.84677 7763 ft 253 kts 154°
2026-04-21 15:39 55.73672 -4.83506 8955 ft 257 kts 154°
2026-04-21 15:39 55.71997 -4.82318 10175 ft 261 kts 155°
2026-04-21 15:39 55.70312 -4.81124 11313 ft 265 kts 154°
2026-04-21 15:40 55.68580 -4.79896 12433 ft 272 kts 155°
2026-04-21 15:40 55.66802 -4.78637 13583 ft 277 kts 155°
2026-04-21 15:40 55.64998 -4.77363 14715 ft 281 kts 155°
2026-04-21 15:40 55.63159 -4.76065 15765 ft 287 kts 155°
2026-04-21 15:41 55.61281 -4.74741 16820 ft 293 kts 155°
2026-04-21 15:41 55.59366 -4.73393 17901 ft 299 kts 155°
2026-04-21 15:41 55.57439 -4.72038 18923 ft 304 kts 155°
2026-04-21 15:41 55.55454 -4.70644 19895 ft 310 kts 155°
2026-04-21 15:42 55.53428 -4.69223 20885 ft 315 kts 155°
2026-04-21 15:42 55.51374 -4.67785 21898 ft 320 kts 155°
2026-04-21 15:42 55.49281 -4.66321 22913 ft 325 kts 155°
2026-04-21 15:42 55.47185 -4.64855 23919 ft 330 kts 155°
2026-04-21 15:43 55.45033 -4.63353 24739 ft 336 kts 156°
2026-04-21 15:43 55.42824 -4.61812 25494 ft 343 kts 156°
2026-04-21 15:43 55.40591 -4.60256 26225 ft 349 kts 157°
2026-04-21 15:43 55.38346 -4.58696 26951 ft 351 kts 158°
2026-04-21 15:44 55.36135 -4.56879 27376 ft 354 kts 150°
2026-04-21 15:44 55.34118 -4.54292 27483 ft 362 kts 137°
2026-04-21 15:44 55.32353 -4.51121 27483 ft 364 kts 132°
2026-04-21 15:44 55.30710 -4.47695 27462 ft 366 kts 129°
2026-04-21 15:45 55.29146 -4.44163 27459 ft 366 kts 128°
2026-04-21 15:45 55.27590 -4.40549 27455 ft 379 kts 127°
2026-04-21 15:45 55.25960 -4.36760 27451 ft 398 kts 127°
2026-04-21 15:45 55.24258 -4.32850 27464 ft 406 kts 127°
2026-04-21 15:46 55.22553 -4.28980 27446 ft 407 kts 128°
2026-04-21 15:46 55.20798 -4.25039 27442 ft 408 kts 128°
2026-04-21 15:46 55.19044 -4.21128 27435 ft 408 kts 128°
2026-04-21 15:46 55.17281 -4.17215 27463 ft 412 kts 129°
2026-04-21 15:47 55.15492 -4.13255 27459 ft 415 kts 129°
2026-04-21 15:47 55.13632 -4.09454 27443 ft 416 kts 132°
2026-04-21 15:47 55.11678 -4.05695 27443 ft 416 kts 133°
2026-04-21 15:47 55.09701 -4.01995 27444 ft 415 kts 134°
2026-04-21 15:48 55.07713 -3.98334 27457 ft 415 kts 134°
2026-04-21 15:48 55.05748 -3.94744 27440 ft 416 kts 134°
2026-04-21 15:48 55.03727 -3.91061 27451 ft 416 kts 134°
2026-04-21 15:48 55.01725 -3.87416 27451 ft 416 kts 134°
2026-04-21 15:49 54.99740 -3.83802 27444 ft 417 kts 134°
2026-04-21 15:49 54.97737 -3.80154 27447 ft 417 kts 134°
2026-04-21 15:49 54.95737 -3.76513 27446 ft 414 kts 134°
2026-04-21 15:49 54.93741 -3.72884 27447 ft 415 kts 134°
2026-04-21 15:50 54.91726 -3.69227 27460 ft 421 kts 135°
2026-04-21 15:50 54.89685 -3.65530 27442 ft 424 kts 134°
2026-04-21 15:50 54.87649 -3.61846 27462 ft 423 kts 134°
2026-04-21 15:50 54.85606 -3.58157 27443 ft 423 kts 135°
2026-04-21 15:51 54.83559 -3.54464 27445 ft 423 kts 135°
2026-04-21 15:51 54.81544 -3.50836 27443 ft 425 kts 135°
2026-04-21 15:51 54.79486 -3.47137 27432 ft 425 kts 134°
2026-04-21 15:51 54.77438 -3.43462 27446 ft 424 kts 135°
2026-04-21 15:52 54.75382 -3.39778 27437 ft 425 kts 135°
2026-04-21 15:52 54.73242 -3.36220 27450 ft 426 kts 142°
2026-04-21 15:52 54.70787 -3.33366 27435 ft 425 kts 152°
2026-04-21 15:52 54.68169 -3.30957 27437 ft 426 kts 156°
2026-04-21 15:53 54.65519 -3.28813 27439 ft 426 kts 158°
2026-04-21 15:53 54.62801 -3.26771 27428 ft 426 kts 158°
2026-04-21 15:53 54.60067 -3.24781 27416 ft 424 kts 160°
2026-04-21 15:53 54.57336 -3.22806 27421 ft 425 kts 159°
2026-04-21 15:54 54.54613 -3.20826 27417 ft 424 kts 159°
2026-04-21 15:54 54.51894 -3.18833 27419 ft 424 kts 158°
2026-04-21 15:54 54.49183 -3.16831 27411 ft 423 kts 158°
2026-04-21 15:54 54.46511 -3.14850 27425 ft 424 kts 159°
2026-04-21 15:55 54.43784 -3.12826 27404 ft 427 kts 159°
2026-04-21 15:55 54.41050 -3.10796 27425 ft 427 kts 158°
2026-04-21 15:55 54.38309 -3.08763 27400 ft 429 kts 159°
2026-04-21 15:55 54.35553 -3.06722 27402 ft 431 kts 159°
2026-04-21 15:56 54.32831 -3.04711 27399 ft 432 kts 158°
2026-04-21 15:56 54.30076 -3.02678 27391 ft 429 kts 159°
2026-04-21 15:56 54.27321 -3.00648 27392 ft 429 kts 159°
2026-04-21 15:56 54.24606 -2.98653 27401 ft 429 kts 158°
2026-04-21 15:57 54.21862 -2.96638 27394 ft 427 kts 158°
2026-04-21 15:57 54.19121 -2.94629 27401 ft 428 kts 159°
2026-04-21 15:57 54.16369 -2.92615 27381 ft 431 kts 159°
2026-04-21 15:57 54.13607 -2.90598 27383 ft 433 kts 159°
2026-04-21 15:58 54.10825 -2.88568 27375 ft 433 kts 159°
2026-04-21 15:58 54.08092 -2.86575 27377 ft 434 kts 159°
2026-04-21 15:58 54.05307 -2.84548 27372 ft 434 kts 159°
2026-04-21 15:58 54.02527 -2.82527 27376 ft 434 kts 159°
2026-04-21 15:59 53.99741 -2.80504 27360 ft 434 kts 159°
2026-04-21 15:59 53.96966 -2.78492 27370 ft 433 kts 159°
2026-04-21 15:59 53.94198 -2.76487 27368 ft 436 kts 160°
2026-04-21 15:59 53.91387 -2.74457 27365 ft 440 kts 160°
2026-04-21 16:00 53.88606 -2.72451 27363 ft 441 kts 160°
2026-04-21 16:00 53.85774 -2.70411 27374 ft 442 kts 160°
2026-04-21 16:00 53.82946 -2.68376 27372 ft 442 kts 160°
2026-04-21 16:00 53.80110 -2.66338 27366 ft 442 kts 160°
2026-04-21 16:01 53.77280 -2.64308 27361 ft 442 kts 160°
2026-04-21 16:01 53.74451 -2.62281 27365 ft 441 kts 160°
2026-04-21 16:01 53.71650 -2.60278 27370 ft 442 kts 160°
2026-04-21 16:01 53.68806 -2.58248 27364 ft 442 kts 160°
2026-04-21 16:02 53.65973 -2.56228 27369 ft 442 kts 160°
2026-04-21 16:02 53.63136 -2.54208 27359 ft 443 kts 160°
2026-04-21 16:02 53.60291 -2.52185 27359 ft 443 kts 160°
2026-04-21 16:02 53.57483 -2.50190 27358 ft 443 kts 160°
2026-04-21 16:03 53.54637 -2.48172 27366 ft 443 kts 160°
2026-04-21 16:03 53.51796 -2.46161 27367 ft 443 kts 160°
2026-04-21 16:03 53.48954 -2.44151 27375 ft 443 kts 160°
2026-04-21 16:03 53.46113 -2.42145 27373 ft 443 kts 160°
2026-04-21 16:04 53.43261 -2.40135 27372 ft 443 kts 160°
2026-04-21 16:04 53.40427 -2.38140 27370 ft 443 kts 160°
2026-04-21 16:04 53.37573 -2.36135 27368 ft 443 kts 160°
2026-04-21 16:04 53.34760 -2.34161 27374 ft 443 kts 160°
2026-04-21 16:05 53.31915 -2.32167 27369 ft 443 kts 160°
2026-04-21 16:05 53.29068 -2.30175 27374 ft 443 kts 160°
2026-04-21 16:05 53.26224 -2.28187 27375 ft 443 kts 160°
2026-04-21 16:05 53.23413 -2.26226 27371 ft 443 kts 160°
2026-04-21 16:06 53.20562 -2.24240 27371 ft 446 kts 160°
2026-04-21 16:06 53.17683 -2.22239 27373 ft 449 kts 160°
2026-04-21 16:06 53.14794 -2.20234 27367 ft 450 kts 160°
2026-04-21 16:06 53.11894 -2.18222 27368 ft 450 kts 160°
2026-04-21 16:07 53.08994 -2.16213 27364 ft 450 kts 160°
2026-04-21 16:07 53.06100 -2.14211 27372 ft 451 kts 160°
2026-04-21 16:07 53.03200 -2.12208 27366 ft 451 kts 160°
2026-04-21 16:07 53.00329 -2.10228 27364 ft 451 kts 160°
2026-04-21 16:08 52.94512 -2.06226 27361 ft 455 kts 161°
2026-04-21 16:08 52.91579 -2.04213 27361 ft 456 kts 161°
2026-04-21 16:08 52.88667 -2.02216 27361 ft 457 kts 161°
2026-04-21 16:09 52.85727 -2.00203 27367 ft 455 kts 160°
2026-04-21 16:09 52.82810 -1.98207 27359 ft 453 kts 160°
2026-04-21 16:09 52.79880 -1.96207 27359 ft 453 kts 160°
2026-04-21 16:09 52.76969 -1.94223 27355 ft 453 kts 160°
2026-04-21 16:10 52.74045 -1.92233 27272 ft 455 kts 161°
2026-04-21 16:10 52.71104 -1.90236 27020 ft 458 kts 160°
2026-04-21 16:10 52.68149 -1.88231 26759 ft 459 kts 160°
2026-04-21 16:10 52.65225 -1.86249 26279 ft 459 kts 160°
2026-04-21 16:11 52.62238 -1.84228 25652 ft 458 kts 160°
2026-04-21 16:11 52.59297 -1.82240 24999 ft 456 kts 159°
2026-04-21 16:11 52.56410 -1.80291 24024 ft 452 kts 159°
2026-04-21 16:11 52.53512 -1.78338 23372 ft 439 kts 159°
2026-04-21 16:12 52.51666 -1.77095 23171 ft 424 kts 159°
2026-04-21 16:12 52.48151 -1.74730 22752 ft 400 kts 159°
2026-04-21 16:12 52.45627 -1.73035 22488 ft 384 kts 159°
2026-04-21 16:12 52.43970 -1.71924 22351 ft 373 kts 159°
2026-04-21 16:13 52.41643 -1.70365 22161 ft 359 kts 159°
2026-04-21 16:13 52.39367 -1.68843 21992 ft 346 kts 159°
2026-04-21 16:13 52.37174 -1.67396 21845 ft 334 kts 161°
2026-04-21 16:13 52.34969 -1.66420 21616 ft 324 kts 173°
2026-04-21 16:14 52.32749 -1.66033 21214 ft 315 kts 178°
2026-04-21 16:14 52.30600 -1.65806 20308 ft 305 kts 178°
2026-04-21 16:14 52.28512 -1.65617 19439 ft 295 kts 176°
2026-04-21 16:14 52.26510 -1.65435 18680 ft 282 kts 174°
2026-04-21 16:15 52.24580 -1.65255 17728 ft 273 kts 175°
2026-04-21 16:15 52.22713 -1.65075 16695 ft 270 kts 173°
2026-04-21 16:15 52.20838 -1.64890 16207 ft 270 kts 174°
2026-04-21 16:15 52.18949 -1.64702 15791 ft 274 kts 174°
2026-04-21 16:16 52.17029 -1.64510 15331 ft 277 kts 174°
2026-04-21 16:16 52.15103 -1.64320 14989 ft 274 kts 174°
2026-04-21 16:16 52.13197 -1.64132 14580 ft 274 kts 172°
2026-04-21 16:16 52.11315 -1.63945 14209 ft 272 kts 174°
2026-04-21 16:17 52.09427 -1.63759 13880 ft 269 kts 172°
2026-04-21 16:17 52.07598 -1.63583 13643 ft 253 kts 172°
2026-04-21 16:17 52.05902 -1.63424 13008 ft 237 kts 170°
2026-04-21 16:17 52.04272 -1.63262 12291 ft 233 kts 172°
2026-04-21 16:18 52.02673 -1.63100 11820 ft 233 kts 170°
2026-04-21 16:18 52.01048 -1.62935 11455 ft 235 kts 172°
2026-04-21 16:18 51.99416 -1.62771 11324 ft 233 kts 171°
2026-04-21 16:18 51.97801 -1.62610 11246 ft 232 kts 172°
2026-04-21 16:19 51.96202 -1.62452 11170 ft 231 kts 172°
2026-04-21 16:19 51.94589 -1.62293 11015 ft 232 kts 170°
2026-04-21 16:19 51.92958 -1.62131 10760 ft 234 kts 170°
2026-04-21 16:19 51.91346 -1.61971 10492 ft 236 kts 172°
2026-04-21 16:20 51.89715 -1.61812 10373 ft 231 kts 171°
2026-04-21 16:20 51.88120 -1.61658 10246 ft 228 kts 170°
2026-04-21 16:20 51.86544 -1.61505 10093 ft 226 kts 169°
2026-04-21 16:20 51.84982 -1.61350 9909 ft 224 kts 170°
2026-04-21 16:21 51.83423 -1.61196 9693 ft 225 kts 170°
2026-04-21 16:21 51.81863 -1.61042 9462 ft 225 kts 169°
2026-04-21 16:21 51.80309 -1.61153 9227 ft 233 kts 192°
2026-04-21 16:21 51.78899 -1.62505 8999 ft 237 kts 212°
2026-04-21 16:22 51.77719 -1.64309 8400 ft 230 kts 229°
2026-04-21 16:22 51.76965 -1.66598 7315 ft 236 kts 247°
2026-04-21 16:22 51.76452 -1.69134 6278 ft 236 kts 252°
2026-04-21 16:22 51.76012 -1.71669 5461 ft 227 kts 254°
2026-04-21 16:23 51.75747 -1.74089 4788 ft 218 kts 269°
2026-04-21 16:23 51.75773 -1.76496 4151 ft 211 kts 274°
2026-04-21 16:23 51.75869 -1.78833 3588 ft 205 kts 275°
2026-04-21 16:23 51.75967 -1.81118 3407 ft 207 kts 273°
2026-04-21 16:24 51.75740 -1.83430 3210 ft 210 kts 242°
2026-04-21 16:24 51.74773 -1.85060 2935 ft 198 kts 199°
2026-04-21 16:24 51.73501 -1.85389 2749 ft 183 kts 163°
2026-04-21 16:24 51.72399 -1.84569 2570 ft 171 kts 131°
2026-04-21 16:25 51.71670 -1.83096 2399 ft 166 kts 117°
2026-04-21 16:25 51.71156 -1.81459 2283 ft 161 kts 103°
2026-04-21 16:25 51.71067 -1.79692 2276 ft 155 kts 81°
2026-04-21 16:25 51.71354 -1.78141 2280 ft 142 kts 73°
2026-04-21 16:26 51.71641 -1.76631 2279 ft 139 kts 75°
2026-04-21 16:26 51.71912 -1.75133 2138 ft 139 kts 76°
2026-04-21 16:26 51.72177 -1.73635 1986 ft 138 kts 73°
2026-04-21 16:26 51.72446 -1.72142 1943 ft 139 kts 75°
2026-04-21 16:27 51.72717 -1.70675 1767 ft 130 kts 75°
2026-04-21 16:27 51.72962 -1.69353 1588 ft 118 kts 75°
2026-04-21 16:27 51.73191 -1.68101 1392 ft 115 kts 74°
2026-04-21 16:27 51.73414 -1.66864 1175 ft 117 kts 74°
2026-04-21 16:28 51.73649 -1.65615 984 ft 116 kts 74°
2026-04-21 16:28 51.73865 -1.64384 896 ft 113 kts 74°
2026-04-21 16:28 51.74095 -1.63166 717 ft 114 kts 75°
2026-04-21 16:28 51.74330 -1.61945 511 ft 113 kts 73°
2026-04-21 16:29 51.74564 -1.60671 333 ft 119 kts 75°
2026-04-21 16:29 51.74789 -1.59442 274 ft 99 kts 73°
2026-04-21 16:29 51.75020 -1.58193 401 ft 139 kts 74°
2026-04-21 16:29 51.75321 -1.56516 717 ft 175 kts 75°
2026-04-21 16:30 51.75670 -1.54548 1039 ft 178 kts 75°
2026-04-21 16:30 51.76035 -1.52609 1311 ft 178 kts 73°
2026-04-21 16:30 51.76428 -1.50673 1556 ft 191 kts 72°
2026-04-21 16:30 51.76833 -1.48745 1775 ft 164 kts 72°
2026-04-21 16:31 51.76759 -1.47088 1820 ft 147 kts 119°
2026-04-21 16:31 51.75771 -1.46221 1971 ft 188 kts 158°
2026-04-21 16:31 51.74406 -1.46068 2133 ft 199 kts 184°
2026-04-21 16:31 51.73609 -1.46644 2046 ft 204 kts 215°
2026-04-21 16:32 51.72943 -1.48640 2020 ft 213 kts 267°
2026-04-21 16:32 51.73199 -1.51017 2555 ft 221 kts 289°
2026-04-21 16:32 51.73665 -1.53390 2917 ft 217 kts 291°
2026-04-21 16:32 51.74104 -1.55649 2982 ft 212 kts 290°
2026-04-21 16:33 51.74520 -1.57922 2979 ft 210 kts 289°
2026-04-21 16:33 51.74876 -1.60223 2981 ft 212 kts 282°
2026-04-21 16:33 51.75068 -1.62554 2983 ft 212 kts 278°
2026-04-21 16:33 51.75208 -1.64918 2980 ft 212 kts 276°
2026-04-21 16:34 51.75336 -1.67293 2983 ft 211 kts 276°
2026-04-21 16:34 51.75462 -1.69660 2982 ft 212 kts 276°
2026-04-21 16:34 51.75585 -1.71993 2975 ft 212 kts 277°
2026-04-21 16:34 51.75698 -1.74361 2969 ft 211 kts 276°
2026-04-21 16:35 51.75801 -1.76709 2939 ft 206 kts 276°
2026-04-21 16:35 51.75899 -1.79019 2580 ft 208 kts 275°
2026-04-21 16:35 51.75986 -1.81365 2303 ft 210 kts 270°
2026-04-21 16:35 51.75728 -1.83658 2271 ft 207 kts 242°
2026-04-21 16:36 51.74849 -1.85394 2275 ft 199 kts 208°
2026-04-21 16:36 51.73593 -1.86108 2279 ft 187 kts 175°
2026-04-21 16:36 51.72380 -1.85763 2280 ft 176 kts 148°
2026-04-21 16:36 51.71447 -1.84617 2273 ft 166 kts 123°
2026-04-21 16:37 51.70938 -1.82992 2272 ft 161 kts 101°
2026-04-21 16:37 51.70830 -1.81270 2265 ft 146 kts 86°
2026-04-21 16:37 51.71013 -1.79723 2265 ft 140 kts 75°
2026-04-21 16:37 51.71290 -1.78227 2264 ft 137 kts 74°
2026-04-21 16:38 51.71557 -1.76838 2272 ft 122 kts 75°
2026-04-21 16:38 51.71798 -1.75574 2267 ft 116 kts 75°
2026-04-21 16:38 51.72026 -1.74364 2270 ft 114 kts 76°
2026-04-21 16:38 51.72254 -1.73149 2263 ft 112 kts 75°
2026-04-21 16:39 51.72466 -1.72039 1937 ft 98 kts 76°
2026-04-21 16:39 51.72662 -1.70959 1800 ft 105 kts 75°
2026-04-21 16:39 51.72878 -1.69793 1643 ft 110 kts 75°
2026-04-21 16:39 51.73100 -1.68593 1480 ft 113 kts 73°
2026-04-21 16:40 51.73322 -1.67391 1313 ft 114 kts 73°
2026-04-21 16:40 51.73543 -1.66167 1068 ft 113 kts 75°
2026-04-21 16:40 51.73753 -1.64954 898 ft 113 kts 72°
2026-04-21 16:40 51.73981 -1.63745 726 ft 113 kts 72°
2026-04-21 16:41 51.74138 -1.62943 644 ft 113 kts 73°
2026-04-21 16:41 51.74449 -1.61270 404 ft 120 kts 72°
2026-04-21 16:41 51.74679 -1.60039 277 ft 109 kts 75°
2026-04-21 16:41 51.74887 -1.58912 306 ft 134 kts 69°
2026-04-21 16:42 51.75192 -1.57263 427 ft 175 kts 71°
2026-04-21 16:42 51.75572 -1.55171 748 ft 202 kts 72°
2026-04-21 16:42 51.75991 -1.52992 1223 ft 205 kts 71°
2026-04-21 16:42 51.76448 -1.50839 1696 ft 200 kts 70°
2026-04-21 16:43 51.76822 -1.48850 2030 ft 170 kts 81°
2026-04-21 16:43 51.76607 -1.47077 2217 ft 164 kts 120°
2026-04-21 16:43 51.75626 -1.46045 2430 ft 178 kts 152°
2026-04-21 16:43 51.74877 -1.45640 2712 ft 187 kts 157°
2026-04-21 16:44 51.74596 -1.45545 2875 ft 194 kts 166°
2026-04-21 16:44 51.73206 -1.45992 3414 ft 217 kts 205°
2026-04-21 16:44 51.72262 -1.47834 3570 ft 217 kts 251°
2026-04-21 16:44 51.72299 -1.50187 3583 ft 209 kts 292°
2026-04-21 16:45 51.72875 -1.52334 3586 ft 208 kts 298°
2026-04-21 16:45 51.73478 -1.54439 3583 ft 208 kts 296°
2026-04-21 16:45 51.74041 -1.56595 3584 ft 208 kts 294°
2026-04-21 16:45 51.74534 -1.58810 3582 ft 209 kts 289°
2026-04-21 16:46 51.74885 -1.61079 3581 ft 211 kts 282°
2026-04-21 16:46 51.75094 -1.63434 3585 ft 212 kts 277°
2026-04-21 16:46 51.75238 -1.65803 3579 ft 212 kts 275°
2026-04-21 16:46 51.75368 -1.68181 3584 ft 213 kts 275°
2026-04-21 16:47 51.75495 -1.70570 3581 ft 214 kts 275°
2026-04-21 16:47 51.75619 -1.72967 3576 ft 214 kts 275°
2026-04-21 16:47 51.75728 -1.75366 3573 ft 214 kts 275°
2026-04-21 16:47 51.75829 -1.77714 3520 ft 209 kts 275°
2026-04-21 16:48 51.75928 -1.80050 3264 ft 210 kts 274°
2026-04-21 16:48 51.75934 -1.82422 2969 ft 212 kts 258°
2026-04-21 16:48 51.75381 -1.84572 2668 ft 208 kts 224°
2026-04-21 16:48 51.74255 -1.85873 2406 ft 195 kts 190°
2026-04-21 16:49 51.72972 -1.86027 2278 ft 179 kts 159°
2026-04-21 16:49 51.71874 -1.85241 2275 ft 169 kts 134°
2026-04-21 16:49 51.71145 -1.83824 2277 ft 161 kts 110°
2026-04-21 16:49 51.70861 -1.82127 2274 ft 158 kts 92°
2026-04-21 16:50 51.70924 -1.80368 2274 ft 157 kts 76°
2026-04-21 16:50 51.71244 -1.78679 2276 ft 158 kts 73°
2026-04-21 16:50 51.71570 -1.76981 2274 ft 158 kts 74°
2026-04-21 16:50 51.71882 -1.75278 2274 ft 155 kts 75°
2026-04-21 16:51 51.72168 -1.73686 2193 ft 143 kts 75°
2026-04-21 16:51 51.72440 -1.72178 1983 ft 138 kts 75°
2026-04-21 16:51 51.72697 -1.70786 1776 ft 120 kts 75°
2026-04-21 16:51 51.72928 -1.69534 1595 ft 114 kts 74°
2026-04-21 16:52 51.73154 -1.68303 1432 ft 115 kts 73°
2026-04-21 16:52 51.73385 -1.67073 1186 ft 113 kts 73°
2026-04-21 16:52 51.73537 -1.66269 1054 ft 114 kts 74°
2026-04-21 16:52 51.73840 -1.64662 897 ft 110 kts 73°
2026-04-21 16:53 51.74055 -1.63464 743 ft 114 kts 75°
2026-04-21 16:53 51.74267 -1.62224 543 ft 116 kts 72°
2026-04-21 16:53 51.74505 -1.60965 364 ft 117 kts 72°
2026-04-21 16:53 51.74730 -1.59761 273 ft 99 kts 73°
2026-04-21 16:54 51.74871 -1.58994 277 ft 45 kts 74°
2026-04-21 16:54 51.74912 -1.58755 276 ft 9 kts 72°
2026-04-21 16:54 51.74944 -1.58595 275 ft 21 kts 72°
2026-04-21 16:54 51.74995 -1.58316 278 ft 29 kts 72°
2026-04-21 16:55 51.75112 -1.58079 277 ft 24 kts 29°
2026-04-21 16:55 51.75246 -1.57966 275 ft 20 kts 28°
2026-04-21 16:55 51.75361 -1.57869 274 ft 17 kts 26°
2026-04-21 16:55 51.75453 -1.57787 273 ft 13 kts 30°
2026-04-21 16:56 51.75527 -1.57722 273 ft 11 kts 26°
2026-04-21 16:56 51.75588 -1.57680 273 ft 8 kts 21°
2026-04-21 16:56 51.75639 -1.57654 273 ft 7 kts 15°
2026-04-21 16:56 51.75692 -1.57627 277 ft 10 kts 18°
2026-04-21 16:57 51.75764 -1.57588 273 ft 12 kts 19°
2026-04-21 16:57 51.75849 -1.57542 273 ft 14 kts 18°
2026-04-21 16:57 51.75928 -1.57470 273 ft 11 kts 57°
2026-04-21 16:57 51.75929 -1.57352 273 ft 11 kts 98°
2026-04-21 16:58 51.75915 -1.57226 276 ft 12 kts 104°
2026-04-21 16:58 51.75878 -1.57101 273 ft 12 kts 138°
2026-04-21 16:58 51.75782 -1.57118 273 ft 17 kts 199°
2026-04-21 16:58 51.75741 -1.57213 273 ft 9 kts 290°
2026-04-21 16:59 51.75751 -1.57260 273 ft 1 kts 287°